{"data":{"norad_id":57750,"intl_designator":"2023-131U","name":"STARLINK-30357","alt_names":[],"object_type":"PAYLOAD","status":"ACTIVE","operator":null,"country":"US","launch_date":"2023-09-01","launch_site_code":"AFETR","launch_vehicle":null,"mission":null,"orbit_class":"UNKNOWN","rcs_meters":null,"size_class":null,"mass_kg":null,"dimensions":null,"purposes":["comms"],"wikipedia_slug":null,"has_3d_model":false,"image_url":null,"decayed_at":null,"tle_current":{"epoch":"2026-05-24T08:52:55.397568Z","epoch_age_seconds":143529,"freshness":"FRESH","line1":"1 57750U 23131U   26144.37008562  .00001600  00000+0  67665-4 0  9992","line2":"2 57750  43.0047 112.4640 0001818 285.5908  74.4743 15.27576966151399","mean_motion":15.27576966,"eccentricity":0.0001818,"inclination_deg":43.0047,"raan_deg":112.464,"arg_perigee_deg":285.5908,"mean_anomaly_deg":74.4743,"bstar":6.7665e-5,"rev_number":15139,"period_min":94.26693594174,"perigee_km":481.81081565827,"apogee_km":484.30554622606,"semimajor_km":6861.1951809422,"source":"CELESTRAK","updated_at":"2026-05-25T13:38:18.402567Z"}}}